EW4169 Weather Reports


time (UTC)temp
F
wind
direction
speed
knots
gust
knots
rain 1hr
in
rain 24hr
in
rain mn
in
humidity
%
barometer
mb
20260509064549 46 322 0.0 0.0 0.00 0.01 0.00 93 1010.1
20260509063032 46 321 0.0 0.0 0.00 0.01 0.00 93 1010.4
20260509061507 46 321 0.0 0.9 0.00 0.01 0.00 93 1010.7
20260509060016 47 321 1.7 1.7 0.00 0.01 0.00 92 1011.0
20260509054559 47 336 1.7 2.6 0.00 0.01 0.00 91 1011.0
20260509053033 47 82 0.0 1.7 0.00 0.01 0.00 89 1011.1
20260509051604 47 75 1.7 2.6 0.00 0.01 0.00 90 1011.4
20260509051506 47 75 1.7 2.6 0.00 0.01 0.00 90 1011.4
20260509050040 47 285 0.9 1.7 0.00 0.01 0.00 90 1011.8
20260509044533 48 285 0.0 0.0 0.00 0.01 0.00 88 1011.7
20260509043018 48 285 0.0 0.0 0.00 0.01 0.00 88 1011.6
20260509041546 48 285 0.0 0.0 0.00 0.01 0.00 87 1011.5
20260509040011 49 285 0.0 2.6 0.00 0.01 0.01 83 1011.8
20260509034520 48 276 0.9 2.6 0.00 0.01 0.01 86 1011.8
20260509033042 48 239 0.0 1.7 0.00 0.01 0.01 86 1012.0
20260509031528 47 107 0.0 0.9 0.00 0.01 0.01 89 1011.8
20260509030007 47 107 0.0 2.6 0.00 0.01 0.01 90 1011.7
20260509024528 47 107 0.0 2.6 0.00 0.01 0.01 89 1011.7
20260509023008 47 277 0.0 2.6 0.00 0.01 0.01 87 1011.8
20260509021549 48 278 0.0 2.6 0.00 0.01 0.01 85 1011.9
20260509020016 49 288 0.0 2.6 0.00 0.02 0.01 82 1011.7
20260509014555 50 97 0.0 4.3 0.00 0.02 0.01 80 1011.5
20260509013047 51 209 0.0 2.6 0.00 0.02 0.01 76 1011.6
20260509011513 52 225 2.6 9.6 0.00 0.02 0.01 74 1011.7
20260509010031 52 266 1.7 5.2 0.00 0.02 0.01 73 1011.1
20260509004532 52 275 1.7 6.1 0.00 0.02 0.01 72 1010.7
20260509003042 53 257 3.5 7.0 0.00 0.02 0.01 70 1010.9
20260509001520 53 230 3.5 9.6 0.00 0.02 0.01 68 1011.0
20260509000052 54 222 6.1 10.4 0.00 0.02 0.01 67 1010.9
20260508234532 54 252 6.1 10.4 0.00 0.02 0.01 68 1010.8
20260508233018 54 253 7.0 14.8 0.00 0.02 0.01 68 1010.7
20260508231540 54 204 6.1 13.0 0.00 0.02 0.01 68 1010.7
20260508230033 55 220 4.3 13.0 0.00 0.02 0.01 67 1010.5
20260508224545 55 195 5.2 13.0 0.00 0.02 0.01 68 1010.4
20260508223040 55 205 7.0 15.6 0.00 0.02 0.01 68 1010.3
20260508221506 55 271 5.2 12.2 0.00 0.02 0.01 71 1010.3
20260508220026 55 214 4.3 11.3 0.00 0.02 0.01 71 1010.7
20260508214508 54 237 6.1 9.6 0.00 0.02 0.01 75 1010.7
20260508213032 53 259 4.3 7.8 0.00 0.02 0.01 77 1010.6
20260508211554 52 248 3.5 7.8 0.01 0.02 0.01 77 1010.5
20260508210045 52 274 5.2 8.7 0.01 0.02 0.01 77 1010.6
20260508204557 51 266 3.5 11.3 0.01 0.02 0.01 78 1010.8
20260508203040 52 262 5.2 15.6 0.01 0.02 0.01 75 1011.2
20260508201558 55 251 9.6 17.4 0.00 0.01 0.00 63 1011.0
20260508200036 58 231 8.7 16.5 0.00 0.01 0.00 52 1010.5
20260508194600 58 204 5.2 12.2 0.00 0.01 0.00 52 1010.4
20260508194503 58 164 6.1 12.2 0.00 0.01 0.00 51 1010.4
20260508193026 58 254 7.0 15.6 0.00 0.01 0.00 53 1010.5
20260508191547 57 283 1.7 4.3 0.00 0.01 0.00 59 1010.6
20260508190040 56 322 4.3 8.7 0.00 0.01 0.00 59 1010.5
20260508184522 57 326 3.5 10.4 0.00 0.01 0.00 58 1010.4
20260508183048 56 296 8.7 16.5 0.00 0.01 0.00 59 1010.7
20260508181534 58 224 2.6 14.8 0.00 0.01 0.00 52 1010.4
20260508180050 58 259 7.8 13.9 0.00 0.01 0.00 51 1011.0
20260508174516 58 196 6.1 12.2 0.00 0.01 0.00 53 1011.2
20260508173053 56 261 5.2 14.8 0.00 0.01 0.00 55 1011.3
20260508171515 54 236 4.3 13.0 0.00 0.01 0.00 60 1011.7
20260508170040 55 279 7.0 12.2 0.00 0.01 0.00 54 1011.8
20260508164520 56 278 6.1 10.4 0.00 0.01 0.00 51 1011.5
20260508163058 56 278 6.1 9.6 0.00 0.01 0.00 51 1011.7
20260508161538 57 231 4.3 11.3 0.00 0.01 0.00 55 1011.6
20260508160050 56 243 4.3 16.5 0.00 0.01 0.00 53 1011.7
20260508154513 55 266 8.7 20.9 0.00 0.01 0.00 54 1011.9
20260508153048 56 278 4.3 14.8 0.00 0.01 0.00 56 1011.8
20260508151513 56 258 7.0 17.4 0.00 0.01 0.00 56 1011.7
20260508150059 55 252 10.4 16.5 0.00 0.01 0.00 54 1011.6
20260508144540 54 187 8.7 16.5 0.00 0.01 0.00 55 1011.5
20260508143108 55 219 8.7 17.4 0.00 0.01 0.00 54 1011.8
20260508141534 54 229 5.2 16.5 0.00 0.01 0.00 57 1011.9
20260508140009 53 228 4.3 12.2 0.00 0.01 0.00 60 1011.9
20260508134536 52 252 4.3 8.7 0.00 0.01 0.00 61 1012.0
20260508133014 50 112 3.5 9.6 0.00 0.01 0.00 65 1012.2
20260508131547 49 217 3.5 7.0 0.00 0.01 0.00 68 1012.4
20260508130020 47 247 1.7 5.2 0.00 0.01 0.00 73 1012.5
20260508124542 45 213 1.7 4.3 0.00 0.01 0.00 77 1012.5
20260508123020 41 225 0.9 3.5 0.00 0.01 0.00 84 1012.6
20260508121546 39 215 0.9 1.7 0.00 0.01 0.00 88 1012.6
20260508120024 38 127 0.0 0.0 0.00 0.01 0.00 94 1012.5
20260508114547 37 127 0.0 0.0 0.00 0.01 0.00 95 1012.6
20260508113030 36 127 0.0 0.0 0.00 0.01 0.00 95 1012.7
20260508111545 35 127 0.0 0.0 0.00 0.01 0.00 95 1012.7
20260508110041 33 127 0.0 0.0 0.00 0.01 0.00 95 1012.7
20260508104554 33 127 0.0 0.0 0.00 0.01 0.00 95 1012.5
20260508103023 32 127 0.0 0.0 0.00 0.01 0.00 94 1012.3
20260508101616 32 127 0.0 0.0 0.00 0.01 0.00 95 1012.3
20260508101502 32 127 0.0 0.0 0.00 0.01 0.00 95 1012.3
20260508100040 31 221 0.0 0.0 0.00 0.01 0.00 94 1012.2
20260508094511 31 221 0.0 0.0 0.00 0.01 0.00 93 1012.0
20260508093044 31 221 0.0 0.0 0.00 0.01 0.00 93 1012.0
20260508091610 32 221 0.0 0.0 0.00 0.01 0.00 93 1011.9
20260508091502 32 221 0.0 0.0 0.00 0.01 0.00 93 1011.9
20260508090056 32 221 0.0 0.0 0.00 0.01 0.00 92 1012.0
20260508084600 32 221 0.0 0.0 0.00 0.01 0.00 91 1011.8
20260508084508 32 221 0.0 0.0 0.00 0.01 0.00 91 1011.8
20260508083052 33 221 0.0 0.0 0.00 0.01 0.00 91 1011.8
20260508081538 33 221 0.0 0.0 0.00 0.01 0.00 89 1011.7
20260508080017 34 221 0.0 0.0 0.00 0.01 0.00 88 1011.9
20260508074541 35 221 0.0 0.0 0.00 0.01 0.00 88 1011.8
20260508073012 36 221 0.0 0.0 0.00 0.01 0.00 86 1011.8
20260508071546 37 221 0.0 0.9 0.00 0.01 0.00 83 1011.7
20260508070010 38 221 0.0 1.7 0.00 0.01 0.00 83 1011.9